Home > Time Zones > World Clock > Weather > U.S.A. > Waco > Past weeks

Flag for U.S.A. Weather past 2 weeks in Waco, Texas, U.S.A.

Now
63 °F

Clear.


Feels Like: 63 °F
Forecast: 58 / 81 °F
Wind: No wind

Location: Waco Regional Airport

Current Time: Oct 22, 2014 at 1:28:50 AM

Latest Report: Oct 22, 2014 at 12:51 AM


Visibility: 10 mi

Pressure: 30.04 "Hg

Humidity: 84%

Dew point: 58 °F

Location of WacoLocation

Historic Weather in Waco — Graph

°F

Waco temperature yesterday

Maximum temperature yesterday: 82 °F (at 3:51 PM)
Minimum temperature yesterday: 56 °F (at 4:51 AM)
Average temperature yesterday: 67 °F

Past Weeks' High & Low Weather Summary

 TemperatureHumidityPressure
High95 °F (Oct 7, 2:51 PM)100% (Oct 13, 5:51 AM)30.14 "Hg (Oct 13, 5:51 AM)
Low48 °F (Oct 15, 6:51 AM)22% (Oct 14, 5:51 PM)29.60 "Hg (Oct 13, 3:51 AM)
Average71 °F69%29.96 "Hg
* Reported Oct 6 11:51 PM — Oct 21 11:51 PM, Waco, Weather by CustomWeather, © 2014

Note: Actual official high and low records may vary slightly from our data, if they occured in-between our weather recording intervals... More about our weather records

Advertising

Waco weather history for previous 24 hours

 ConditionsComfort  
Time TempWeatherWind HumidityBarometerVisibility
11:51 PM
Oct 21
65 °FClear.No wind78%30.05 "Hg10 mi
10:51 PM65 °FClear.No wind78%30.05 "Hg10 mi
9:51 PM66 °FClear.5 mph75%30.04 "Hg10 mi
8:51 PM68 °FClear.6 mph68%30.03 "Hg10 mi
7:51 PM71 °FClear.6 mph59%30.02 "Hg10 mi
6:51 PM74 °FSunny.5 mph50%30.00 "Hg10 mi
5:51 PM79 °FSunny.7 mph39%29.99 "Hg10 mi
4:51 PM81 °FSunny.7 mph30%29.99 "Hg10 mi
3:51 PM82 °FSunny.8 mph28%30.00 "Hg10 mi
2:51 PM81 °FSunny.9 mph34%30.01 "Hg10 mi
1:51 PM80 °FSunny.7 mph42%30.03 "Hg10 mi
12:51 PM78 °FSunny.No wind48%30.07 "Hg10 mi
11:51 AM75 °FSunny.6 mph58%30.09 "Hg10 mi
10:51 AM71 °FSunny.No wind66%30.10 "Hg10 mi
9:51 AM67 °FSunny.No wind81%30.11 "Hg7 mi
8:51 AM61 °FFog.No wind90%30.09 "Hg2 mi
8:03 AM57 °FFog.No wind93%30.09 "Hg2 mi
7:51 AM56 °FFog.3 mph93%30.07 "Hg1 mi
6:51 AM56 °FFog.No wind97%30.06 "Hg3 mi
5:51 AM56 °FFog.No wind97%30.04 "Hg4 mi
4:51 AM56 °FFog.No wind97%30.03 "Hg4 mi
3:51 AM58 °FFog.No wind97%30.01 "Hg4 mi
2:51 AM59 °FClear.No wind93%30.02 "Hg8 mi
1:51 AM59 °FClear.No wind96%30.03 "Hg8 mi
Weather by CustomWeather, © 2014

See weather overviewHow to use our weather pages